Hourly Data Report for October 27, 2004

SHERBROOKE A
QUEBEC

45°26'00.000" N
71°41'00.000" W
241.40 m
7028124
71610
YSC

Download Data

Hourly Data (October 2004)
Hourly Data Report for October 27, 2004
TIME
LST
Temp Definition
°C
Dew Point Definition
°C
Rel Hum Definition
%
Precip. Amount Definition
mm

Wind Dir Definition
10's deg

Wind Spd Definition
km/h
Visibility Definition
km
Stn Press Definition
kPa
Hmdx Definition


Wind Chill Definition


Weather Definition


00:00 6.4 4.2 86   24 7 11.3 99.29      
01:00 6.2 4.3 88   27 6 11.3 99.28      
02:00 5.9 4.5 91     0 11.3 99.29      
03:00 6.0 4.6 91   27 4 11.3 99.32      
04:00 5.7 4.5 92   28 6 11.3 99.33      
05:00 4.8 3.8 93   26 4 8.0 99.31      
06:00 3.9 3.2 95   30 4 5.6 99.32      
07:00 3.0 2.3 95   25 4 0.6 99.37     Fog
08:00 4.9 4.4 97     0 16.1 99.38     Mostly Cloudy
09:00 6.2 4.4 88   30 7 16.1 99.38     Mostly Cloudy
10:00 6.0 3.8 86   29 19 19.3 99.46     Mostly Cloudy
11:00 5.7 2.4 79   31 15 15.0 99.53      
12:00 5.7 2.1 78   34 15 24.1 99.51     Cloudy
13:00 5.7 1.5 74   34 9 24.1 99.50     Cloudy
14:00 6.1 1.3 71   34 6 24.1 99.50     Cloudy
15:00 6.8 1.5 69   34 7 24.1 99.52     Cloudy
16:00 6.5 1.3 69   32 11 24.1 99.55     Mostly Cloudy
17:00 3.8 0.3 78   30 11 15.0 99.59      
18:00 4.1 -0.1 74   31 9 15.0 99.63      
19:00 3.4 -1.4 71   36 6 15.0 99.67      
20:00 2.8 -2.1 70     0 15.0 99.69      
21:00 -1.2 -4.3 79     0 15.0 99.73      
22:00 -2.8 -4.8 86   17 4 15.0 99.77   -4  
23:00 -3.8 -5.5 88   13 4 15.0 99.80   -5  

Notes on Data Quality.

Legend

  • E = Estimated
  • M = Missing
  • NA = Not Available*
  • [empty] = Indicates an unobserved value
Date modified: